Weather History for Blackwell, OK

Change the Weather History Date:

Wednesday, February 20, 2013

  Actual Average (KPNC) Record (KPNC)
Temperature  
Mean Temperature 32 °F -  
Max Temperature 37 °F 56 °F 75 °F (2011)
Min Temperature 28 °F 27 °F 15 °F (1955)
Degree Days  
Heating Degree Days 32    
Moisture  
Dew Point 27 °F    
Average Humidity 82    
Maximum Humidity 100    
Minimum Humidity 44    
Precipitation  
Precipitation 0.03 in - - ()
Sea Level Pressure  
Sea Level Pressure 30.12 in    
Wind  
Wind Speed 13 mph (East)    
Max Wind Speed 20 mph    
Max Gust Speed 28 mph    
Visibility 6 miles    
Events Rain , Snow    
Averages and records for this station are not official NWS values.
T = Trace of Precipitation, MM = Missing Value Source: NWS Daily Summary

Daily Weather History Graph

Daily Weather History Graph

Search for Another Location

Airport:

Trip Planner

Search our weather history database for the weather conditions in past years. The results will help you decide how hot, cold, wet, or windy it might be!

Date:

Astronomy

Feb. 20, 2013 Rise Set
Actual Time 7:11 AM CST 6:15 PM CST
Civil Twilight 6:45 AM CST 6:41 PM CST
Nautical Twilight 6:15 AM CST 7:11 PM CST
Astronomical Twilight 5:45 AM CST 7:41 PM CST
Moon 1:42 PM CST (2/20) 3:27 AM CST (2/20)
Length of Visible Light 11h 56m
Length of Day
11h 03m
Waxing Gibbous, 76% of the Moon is Illuminated
Feb 20
Waxing Gibbous
Feb 25
Full
Mar 4
Last Quarter
Mar 11
New
Mar 19
First Quarter

Hourly Weather History & Observations

Time (CST) Temp. Windchill Dew Point Humidity Pressure Visibility Wind Dir Wind Speed Gust Speed Precip Events Conditions
12:15 AM 35.6 °F 28.0 °F 21.2 °F 56% 30.22 in 10.0 mi East 10.4 mph - N/A   Clear
12:35 AM 37.4 °F 29.8 °F 19.4 °F 48% 30.22 in 10.0 mi East 11.5 mph - N/A   Clear
12:55 AM 35.6 °F 28.0 °F 19.4 °F 52% 30.22 in 10.0 mi East 10.4 mph - N/A   Partly Cloudy
1:15 AM 35.6 °F 27.5 °F 21.2 °F 56% 30.21 in 10.0 mi East 11.5 mph - N/A   Mostly Cloudy
1:35 AM 35.6 °F 26.6 °F 19.4 °F 52% 30.19 in 10.0 mi East 13.8 mph - N/A   Overcast
1:55 AM 35.6 °F 25.9 °F 19.4 °F 52% 30.19 in 10.0 mi East 16.1 mph - N/A   Overcast
2:15 AM 35.6 °F 27.1 °F 17.6 °F 48% 30.18 in 10.0 mi East 12.7 mph - N/A   Overcast
2:35 AM 35.6 °F 28.0 °F 17.6 °F 48% 30.19 in 10.0 mi East 10.4 mph - N/A   Overcast
2:55 AM 35.6 °F 26.6 °F 17.6 °F 48% 30.18 in 10.0 mi East 13.8 mph - N/A   Overcast
3:15 AM 35.6 °F 26.6 °F 17.6 °F 48% 30.18 in 10.0 mi East 13.8 mph - N/A   Overcast
3:35 AM 35.6 °F 26.6 °F 15.8 °F 44% 30.17 in 10.0 mi East 13.8 mph 19.6 mph N/A   Overcast
3:55 AM 35.6 °F 26.6 °F 15.8 °F 44% 30.17 in 10.0 mi East 13.8 mph 20.7 mph N/A   Overcast
4:15 AM 33.8 °F 23.9 °F 15.8 °F 48% 30.17 in 10.0 mi East 15.0 mph 18.4 mph N/A   Overcast
4:35 AM 33.8 °F 25.3 °F 15.8 °F 48% 30.18 in 10.0 mi East 11.5 mph - N/A   Overcast
4:55 AM 33.8 °F 28.6 °F 15.8 °F 48% 30.20 in 10.0 mi SE 5.8 mph - N/A   Overcast
5:15 AM 35.6 °F 29.9 °F 15.8 °F 44% 30.22 in 10.0 mi SE 6.9 mph - N/A   Overcast
5:35 AM 33.8 °F 26.4 °F 15.8 °F 48% 30.22 in 10.0 mi SE 9.2 mph - N/A   Overcast
5:55 AM 33.8 °F 26.4 °F 15.8 °F 48% 30.22 in 10.0 mi ESE 9.2 mph - N/A   Overcast
6:15 AM 33.8 °F 25.8 °F 14.0 °F 44% 30.22 in 10.0 mi East 10.4 mph - N/A   Overcast
6:35 AM 33.8 °F 24.8 °F 14.0 °F 44% 30.21 in 10.0 mi East 12.7 mph - N/A   Overcast
6:55 AM 32.0 °F 21.6 °F 17.6 °F 55% 30.21 in 7.0 mi East 15.0 mph - N/A   Overcast
7:15 AM 32.0 °F 21.2 °F 23.0 °F 69% 30.20 in 6.0 mi East 16.1 mph - N/A   Overcast
7:35 AM 32.0 °F 22.1 °F 26.6 °F 80% 30.21 in 3.0 mi ESE 13.8 mph - N/A   Overcast
7:55 AM 30.2 °F 18.5 °F 28.4 °F 93% 30.21 in 2.5 mi East 17.3 mph 21.9 mph N/A   Mostly Cloudy
8:15 AM 30.2 °F 18.9 °F 28.4 °F 93% 30.20 in 1.8 mi East 16.1 mph - N/A Snow Light Snow
8:35 AM 30.2 °F 18.1 °F 26.6 °F 86% 30.19 in 1.8 mi East 18.4 mph 23.0 mph N/A Snow Light Snow
8:55 AM 28.4 °F 16.2 °F 28.4 °F 100% 30.20 in 1.5 mi East 17.3 mph 20.7 mph N/A Snow Light Snow
9:15 AM 28.4 °F 17.0 °F 28.4 °F 100% 30.20 in 0.8 mi East 15.0 mph - N/A Snow Light Snow
9:35 AM 30.2 °F 19.3 °F 28.4 °F 93% 30.20 in 1.0 mi East 15.0 mph 19.6 mph N/A Snow Light Snow
9:55 AM 30.2 °F 18.9 °F 30.2 °F 100% 30.19 in 0.8 mi East 16.1 mph 21.9 mph N/A Snow Light Snow
10:15 AM 30.2 °F 18.5 °F 30.2 °F 100% 30.19 in 1.8 mi East 17.3 mph - N/A Snow Light Snow
10:35 AM 32.0 °F 22.5 °F 30.2 °F 93% 30.18 in 1.0 mi East 12.7 mph - N/A Snow Light Snow
10:55 AM 32.0 °F 21.2 °F 30.2 °F 93% 30.18 in 1.0 mi East 16.1 mph 20.7 mph N/A Snow Light Snow
11:15 AM 32.0 °F 21.2 °F 30.2 °F 93% 30.17 in 2.5 mi East 16.1 mph 21.9 mph N/A   Mostly Cloudy
11:35 AM 32.0 °F 22.1 °F 32.0 °F 100% 30.16 in 3.0 mi East 13.8 mph 23.0 mph N/A Snow Light Snow
11:55 AM 32.0 °F 22.5 °F 32.0 °F 100% 30.16 in 1.8 mi East 12.7 mph - N/A Snow Light Snow
12:15 PM 32.0 °F 22.1 °F 32.0 °F 100% 30.16 in 1.8 mi East 13.8 mph 19.6 mph 0.01 in Snow Light Snow
12:35 PM 32.0 °F 22.5 °F 32.0 °F 100% 30.14 in 2.0 mi East 12.7 mph 19.6 mph 0.01 in Snow Light Snow
12:55 PM 32.0 °F 21.2 °F 32.0 °F 100% 30.13 in 1.5 mi East 16.1 mph - 0.01 in Snow Light Snow
1:15 PM 32.0 °F 20.8 °F 32.0 °F 100% 30.11 in 2.5 mi East 17.3 mph 23.0 mph N/A   Mostly Cloudy
1:35 PM 32.0 °F 20.8 °F 32.0 °F 100% 30.09 in 3.0 mi East 17.3 mph 21.9 mph N/A Rain Light Rain
2:15 PM 32.0 °F 20.5 °F 32.0 °F 100% 30.07 in 6.0 mi East 18.4 mph 24.2 mph 0.01 in Rain Light Rain
2:55 PM 32.0 °F 21.6 °F 32.0 °F 100% 30.06 in 10.0 mi ESE 15.0 mph 21.9 mph 0.01 in   Overcast
3:15 PM 33.8 °F 22.8 °F 32.0 °F 93% 30.04 in 10.0 mi ESE 18.4 mph 24.2 mph N/A   Overcast
3:35 PM 32.0 °F 21.2 °F 32.0 °F 100% 30.04 in 8.0 mi ESE 16.1 mph 27.6 mph N/A   Overcast
3:55 PM 32.0 °F 21.2 °F 32.0 °F 100% 30.03 in 7.0 mi ESE 16.1 mph 21.9 mph N/A   Overcast
4:15 PM 32.0 °F 21.2 °F 32.0 °F 100% 30.04 in 8.0 mi ESE 16.1 mph 23.0 mph N/A   Overcast
4:35 PM 32.0 °F 22.1 °F 32.0 °F 100% 30.03 in 7.0 mi East 13.8 mph 20.7 mph N/A   Overcast
4:55 PM 32.0 °F 20.5 °F 32.0 °F 100% 30.02 in 5.0 mi ESE 18.4 mph 21.9 mph N/A   Overcast
5:15 PM 32.0 °F 21.6 °F 32.0 °F 100% 30.01 in 2.5 mi ESE 15.0 mph 21.9 mph N/A   Overcast
5:35 PM 32.0 °F 20.8 °F 32.0 °F 100% 30.00 in 2.0 mi East 17.3 mph 23.0 mph N/A   Overcast
5:55 PM 32.0 °F 20.1 °F 32.0 °F 100% 29.99 in 2.5 mi East 19.6 mph 23.0 mph N/A   Overcast
6:15 PM 32.0 °F 21.6 °F 32.0 °F 100% 29.99 in 2.5 mi ESE 15.0 mph 20.7 mph N/A Snow Light Snow
6:35 PM 32.0 °F 21.6 °F 32.0 °F 100% 29.99 in 7.0 mi East 15.0 mph 21.9 mph N/A Rain Light Rain
6:55 PM 32.0 °F 20.5 °F 32.0 °F 100% 30.01 in 6.0 mi East 18.4 mph 21.9 mph N/A Rain Light Rain
7:15 PM 32.0 °F 22.5 °F 32.0 °F 100% 30.01 in 4.0 mi ESE 12.7 mph - N/A Rain Light Rain
7:35 PM 32.0 °F 23.0 °F 32.0 °F 100% 30.01 in 2.5 mi East 11.5 mph - N/A Rain Light Rain
7:55 PM 32.0 °F 23.0 °F 32.0 °F 100% 30.01 in 2.5 mi East 11.5 mph 16.1 mph N/A Rain Light Rain
8:15 PM 32.0 °F 23.6 °F 32.0 °F 100% 30.02 in 2.5 mi East 10.4 mph - N/A   Overcast
9:35 PM 32.0 °F 22.5 °F 32.0 °F 100% 30.00 in 2.0 mi East 12.7 mph - N/A Snow Light Snow
9:55 PM 32.0 °F 21.6 °F 32.0 °F 100% 29.99 in 3.0 mi East 15.0 mph 20.7 mph N/A Rain Light Rain
10:15 PM 32.0 °F 22.5 °F 32.0 °F 100% 29.99 in 5.0 mi East 12.7 mph - N/A   Overcast
10:35 PM 32.0 °F 21.6 °F 32.0 °F 100% 29.99 in 6.0 mi East 15.0 mph 19.6 mph N/A   Overcast
10:55 PM 32.0 °F 22.1 °F 32.0 °F 100% 29.97 in 7.0 mi East 13.8 mph - N/A   Overcast
11:15 PM 32.0 °F 22.1 °F 32.0 °F 100% 29.97 in 5.0 mi East 13.8 mph 20.7 mph N/A   Overcast
11:35 PM 32.0 °F 22.5 °F 32.0 °F 100% 29.97 in 3.0 mi ENE 12.7 mph - 0.01 in Rain Light Rain
11:55 PM 32.0 °F 21.6 °F 32.0 °F 100% 29.96 in 2.5 mi ENE 15.0 mph - 0.01 in Rain Light Rain